Tracking 19242 objects as of 16-Aug-2018
HD Live streaming from Space Station
objects crossing your sky now

NOAA 16 DEB

Track NOAA 16 DEB now!
10-day predictions


NORAD ID: 41091
Int'l Code: 2000-055BA
Perigee: 840.7 km
Apogee: 922.5 km
Inclination: 99.0 °
Period: 102.4 minutes
Semi major axis: 7252 km
RCS: Unknown
Launch date: September 21, 2000
Source: United States (US)
Launch site: AIR FORCE WESTERN TEST RANGE (AFWTR)

Note: This is SATELLITE DEBRIS
aabbcc
Your satellite tracking list
Your tracking list is empty




NASA's NSSDC Master Catalog

Two Line Element Set (TLE):
1 41091U 00055BA  18227.69965775 +.00000824 +00000-0 +52614-3 0  9994
2 41091 099.0041 301.9347 0056424 357.7799 002.3110 14.05598973138915
Source of the keplerian elements: AFSPC